TimePDT,TemperatureF,Dew PointF,Humidity,Sea Level PressureIn,VisibilityMPH,Wind Direction,Wind SpeedMPH,Gust SpeedMPH,PrecipitationIn,Events,Conditions,WindDirDegrees,DateUTC
12:53 AM,69.1,54.0,58,29.85,10.0,NW,15.0,23.0,N/A,,Clear,320,2013-07-08 07:53:00
1:53 AM,66.9,55.0,66,29.86,10.0,NW,12.7,20.7,N/A,,Clear,320,2013-07-08 08:53:00
2:53 AM,66.0,54.0,65,29.88,10.0,NNW,13.8,20.7,N/A,,Clear,330,2013-07-08 09:53:00
3:53 AM,64.9,54.0,68,29.89,10.0,NW,18.4,24.2,N/A,,Clear,320,2013-07-08 10:53:00
4:53 AM,63.0,54.0,72,29.91,10.0,WNW,5.8,-,N/A,,Clear,290,2013-07-08 11:53:00
5:53 AM,64.0,53.1,67,29.92,10.0,WNW,10.4,17.3,N/A,,Clear,300,2013-07-08 12:53:00
6:53 AM,64.0,53.1,67,29.94,10.0,Calm,Calm,-,N/A,,Clear,0,2013-07-08 13:53:00
7:53 AM,68.0,53.1,59,29.95,10.0,NW,17.3,-,N/A,,Clear,310,2013-07-08 14:53:00
8:53 AM,71.1,53.1,53,29.96,10.0,NW,20.7,26.5,N/A,,Clear,320,2013-07-08 15:53:00
9:53 AM,73.0,52.0,48,29.96,10.0,NNW,23.0,29.9,N/A,,Clear,330,2013-07-08 16:53:00
10:53 AM,75.9,53.1,45,29.94,10.0,NNW,21.9,27.6,N/A,,Clear,330,2013-07-08 17:53:00
11:53 AM,79.0,53.1,40,29.95,10.0,NNW,21.9,28.8,N/A,,Clear,330,2013-07-08 18:53:00
12:53 PM,82.9,51.1,33,29.95,10.0,NNW,18.4,28.8,N/A,,Clear,330,2013-07-08 19:53:00
1:53 PM,84.9,51.1,31,29.94,10.0,NNW,16.1,23.0,N/A,,Clear,330,2013-07-08 20:53:00
2:53 PM,87.1,52.0,30,29.93,10.0,NNW,19.6,24.2,N/A,,Clear,330,2013-07-08 21:53:00
3:53 PM,88.0,52.0,29,29.92,10.0,NNW,17.3,24.2,N/A,,Clear,330,2013-07-08 22:53:00
5:53 PM,87.1,54.0,32,29.91,10.0,NNW,16.1,-,N/A,,Clear,330,2013-07-09 00:53:00
6:53 PM,84.9,53.1,33,29.91,10.0,NW,11.5,-,N/A,,Clear,320,2013-07-09 01:53:00
7:53 PM,82.0,54.0,38,29.92,10.0,NW,13.8,-,N/A,,Clear,320,2013-07-09 02:53:00
8:53 PM,78.1,55.0,45,29.93,10.0,NW,12.7,-,N/A,,Clear,310,2013-07-09 03:53:00
9:53 PM,77.0,55.9,48,29.95,10.0,WNW,4.6,-,N/A,,Clear,300,2013-07-09 04:53:00
10:53 PM,73.9,57.0,55,29.97,10.0,NNW,12.7,-,N/A,,Clear,330,2013-07-09 05:53:00
11:53 PM,72.0,55.9,57,29.98,10.0,Variable,3.5,-,N/A,,Clear,0,2013-07-09 06:53:00